Date,TemperatureHighF,TemperatureAvgF,TemperatureLowF,DewpointHighF,DewpointAvgF,DewpointLowF,HumidityHigh,HumidityAvg,HumidityLow,PressureMaxIn,PressureMinIn,WindSpeedMaxMPH,WindSpeedAvgMPH,GustSpeedMaxMPH,PrecipitationSumIn
2013-1-1,52.1,43.2,28.0,25.5,18.2,11.2,80,41,22,30.28,30.16,17,4,0,0.00
2013-1-2,58.3,51.5,45.8,16.2,13.2,10.6,26,21,18,30.23,30.07,17,6,0,0.00
2013-1-3,59.5,52.3,46.9,14.7,10.8,5.4,27,19,13,30.22,30.10,17,3,0,0.00
2013-1-4,61.4,49.1,33.4,11.1,7.9,3.7,35,19,11,30.31,30.18,13,2,0,0.00
2013-1-5,63.6,48.9,34.6,23.3,12.6,7.2,52,25,11,30.31,30.17,6,1,0,0.00
2013-1-6,49.4,43.4,37.6,41.9,37.1,23.1,94,79,46,30.18,30.04,7,0,0,0.05
2013-1-7,60.8,48.6,33.8,35.0,25.5,14.5,85,46,19,30.16,30.04,10,2,0,0.00
2013-1-8,70.5,59.8,44.1,33.3,28.0,17.9,43,30,22,30.15,30.07,11,2,0,0.00
2013-1-9,70.9,59.7,46.3,44.3,35.6,30.7,91,43,26,30.12,29.92,8,1,0,0.00
2013-1-10,49.1,42.9,29.3,43.2,30.5,19.3,93,64,35,30.10,29.88,12,2,0,0.01
2013-1-11,46.7,37.2,24.6,25.5,21.7,16.6,79,55,35,30.22,30.10,11,1,0,0.00
2013-1-12,50.0,37.0,23.0,20.5,16.6,9.5,76,47,20,30.21,30.10,9,1,0,0.00
2013-1-13,50.6,38.9,28.3,19.3,14.7,5.1,55,38,23,30.22,30.06,14,1,0,0.00
2013-1-14,43.7,37.8,31.5,5.4,0.1,-4.5,29,20,14,30.38,30.19,15,5,0,0.00
2013-1-15,54.5,43.6,28.6,20.4,11.2,1.2,36,26,20,30.50,30.36,16,3,0,0.00
2013-1-16,62.2,54.0,39.1,23.7,20.6,16.7,43,27,20,30.41,30.20,20,5,0,0.00
2013-1-17,65.9,60.5,56.0,17.7,12.4,8.2,21,15,11,30.23,30.12,23,9,0,0.00
2013-1-18,66.0,59.3,51.2,13.1,11.5,10.2,20,15,12,30.20,30.10,19,6,0,0.00
2013-1-19,67.5,60.5,54.4,12.4,9.7,5.6,18,13,10,30.23,30.12,22,6,0,0.00
2013-1-20,67.9,60.3,48.0,10.3,7.6,4.0,18,12,9,30.18,30.07,18,4,0,0.00
2013-1-21,70.5,63.2,50.6,8.8,3.4,-4.6,14,9,6,30.14,30.05,16,4,0,0.00
2013-1-22,70.3,61.0,50.4,12.1,6.0,0.4,21,11,7,30.12,30.03,16,3,0,0.00
2013-1-23,75.9,62.2,51.3,43.0,24.7,9.5,71,26,14,30.10,30.01,8,1,0,0.00
2013-1-24,60.6,53.4,47.6,55.0,49.2,43.1,94,86,72,30.18,30.07,9,1,0,0.60
2013-1-25,56.8,54.6,52.1,50.1,47.9,44.4,88,78,67,30.17,29.98,13,3,0,0.07
2013-1-26,68.5,57.5,52.6,53.4,48.3,-99.9,90,76,54,29.97,29.86,7,1,0,0.01
2013-1-27,55.8,46.0,32.2,50.2,41.0,27.5,95,83,43,30.03,29.91,6,1,0,0.00
2013-1-28,52.9,41.9,30.1,29.3,26.4,23.0,85,57,33,30.23,30.03,13,2,0,0.00
2013-1-29,62.2,45.2,30.1,34.1,30.5,24.7,82,60,31,30.25,30.14,5,1,0,0.00
2013-1-30,71.5,51.2,36.5,39.5,33.8,-99.9,82,57,23,30.37,30.22,6,1,0,0.00
2013-1-31,71.4,57.3,38.8,35.4,33.1,31.3,78,43,25,30.27,30.13,12,2,0,0.00
2013-2-1,75.8,61.8,48.5,42.9,34.5,30.7,57,37,20,30.18,30.09,6,1,0,0.00
2013-2-2,70.0,60.8,52.1,49.3,36.2,31.5,88,43,25,30.20,30.12,12,2,0,0.03
2013-2-3,72.8,58.9,44.0,45.6,37.3,26.1,76,48,21,30.16,29.99,10,1,0,0.00
2013-2-4,73.5,59.3,41.5,36.3,29.1,20.8,58,34,14,30.07,29.95,8,1,0,0.00
2013-2-5,67.3,50.4,37.5,47.4,38.2,28.1,93,65,35,30.06,29.94,8,1,0,0.00
2013-2-6,69.4,50.9,35.4,63.0,38.3,-99.9,100,69,27,30.11,29.99,6,1,0,0.00
2013-2-7,61.7,46.1,31.6,45.6,38.3,29.0,93,76,54,30.15,29.96,5,1,0,0.00
2013-2-8,50.5,40.2,30.5,39.1,34.9,29.0,95,82,52,29.96,29.84,9,1,0,0.11
2013-2-9,55.5,40.8,27.8,36.2,30.6,26.0,95,70,34,30.12,29.94,6,1,0,0.01
2013-2-10,46.8,35.2,26.9,38.6,31.3,25.2,94,86,69,30.12,30.02,3,0,0,0.00
2013-2-11,56.0,44.4,27.6,35.0,19.6,6.5,94,47,16,30.19,30.10,18,2,0,0.00
2013-2-12,48.9,44.5,38.1,26.4,19.2,15.1,62,38,26,30.31,30.30,6,1,0,0.00
2013-2-13,47.6,36.5,33.2,19.6,17.3,15.8,55,46,28,30.30,30.26,2,0,0,0.00
2013-2-19,41.8,39.0,37.7,37.3,36.4,35.6,93,90,84,29.72,29.69,6,0,0,0.14
2013-2-20,55.9,40.0,29.8,36.5,27.8,-99.9,94,66,33,30.02,29.69,10,1,0,0.00
2013-2-21,56.1,41.8,25.8,32.6,25.5,17.0,90,58,22,30.15,30.01,15,1,0,0.00
2013-2-22,65.9,46.2,27.7,31.6,26.0,21.0,82,51,19,30.21,30.11,5,1,0,0.00
2013-2-23,67.1,49.9,32.6,36.1,29.1,-99.9,75,49,28,30.18,29.91,8,2,0,0.00
2013-2-24,59.0,50.0,36.9,32.1,7.4,-2.7,57,19,10,30.22,30.04,20,5,0,0.00
2013-2-25,68.0,45.5,33.7,23.8,12.0,2.3,53,28,11,30.24,30.08,5,1,0,0.00
2013-2-26,66.5,54.6,36.3,26.2,16.2,5.6,50,24,13,30.15,30.03,14,3,0,0.00
2013-2-27,65.8,56.5,44.7,13.6,9.9,6.6,24,16,11,30.28,30.16,14,3,0,0.00
2013-3-2,50.5,48.5,47.1,24.4,22.8,21.6,38,36,34,30.09,30.07,0,0,0,0.00
2013-3-3,72.9,59.3,44.3,42.5,33.1,22.2,80,40,23,30.09,29.91,8,1,0,0.00
2013-3-4,71.2,54.9,39.8,47.7,40.0,-99.9,86,62,36,30.09,29.97,8,1,0,0.00
2013-3-5,67.3,51.4,37.5,49.7,42.6,-99.9,94,76,40,30.09,29.97,8,1,0,0.00
2013-3-6,55.5,49.0,44.1,44.4,42.5,40.2,93,79,61,30.12,29.98,5,1,0,0.00
2013-3-7,55.2,48.4,43.1,45.2,41.8,35.3,94,79,54,29.99,29.82,10,1,0,0.08
2013-3-8,52.3,44.4,36.1,41.8,39.0,34.0,94,82,57,30.02,29.77,5,1,0,0.61
2013-3-9,64.1,46.9,37.7,42.6,36.1,29.6,94,70,29,30.23,30.02,7,1,0,0.00
2013-3-10,71.4,55.2,36.3,32.2,22.2,13.5,81,33,11,30.30,30.16,12,2,0,0.00
2013-3-11,80.3,60.9,39.7,30.0,23.1,16.9,55,27,11,30.21,30.02,6,1,0,0.00
2013-3-23,77.5,65.8,46.4,43.1,27.4,7.7,67,30,7,30.00,29.89,12,2,0,0.00
2013-3-24,82.5,60.4,41.6,39.8,27.1,13.1,70,34,10,30.01,29.85,10,1,0,0.00
2013-3-25,79.7,59.6,40.4,43.8,34.1,25.9,62,41,19,29.96,29.85,5,1,0,0.00
2013-3-26,76.8,58.1,40.7,46.1,39.4,32.6,78,53,24,29.93,29.84,7,1,0,0.00
2013-3-27,72.5,56.4,43.7,48.8,43.9,38.4,87,65,39,30.02,29.89,5,1,0,0.00
2013-3-28,78.1,58.6,42.3,50.2,44.8,39.5,93,64,31,30.05,29.98,7,1,0,0.00
2013-3-29,80.7,63.2,43.7,48.8,43.0,37.9,86,54,23,30.08,29.99,8,1,0,0.00
2013-4-8,61.7,55.9,50.1,36.2,33.2,29.4,54,43,34,29.82,29.65,11,2,0,0.00
2013-4-9,71.9,56.6,39.6,34.2,24.0,17.1,58,32,13,30.03,29.82,9,2,0,0.00
2013-4-10,83.8,65.5,47.6,27.6,20.0,11.7,39,19,8,30.11,29.93,8,2,0,0.00
2013-4-11,79.5,62.3,44.9,48.2,36.2,23.6,71,40,22,29.96,29.71,8,1,0,0.00
2013-4-12,88.1,63.9,43.2,51.8,44.3,35.7,82,54,16,29.81,29.71,6,1,0,0.00
2013-4-13,76.2,59.9,44.9,52.7,47.7,40.9,88,67,38,29.83,29.74,6,1,0,0.00
2013-4-14,69.0,57.4,50.9,51.4,49.1,47.2,89,75,51,29.82,29.73,5,1,0,0.00
2013-4-15,62.1,54.2,48.0,48.4,46.9,42.9,90,77,59,29.84,29.77,9,2,0,0.00
2013-4-16,61.7,52.5,44.1,43.4,29.9,20.7,85,45,24,30.00,29.81,15,3,0,0.00
2013-4-17,68.0,54.4,35.4,28.9,21.1,15.8,58,29,14,30.17,30.01,14,2,0,0.00
2013-4-18,66.0,54.9,40.8,21.6,14.6,11.3,42,21,12,30.25,30.17,16,4,0,0.00
2013-4-22,59.4,56.7,53.5,46.7,45.3,44.2,76,66,58,29.87,29.86,2,0,0,0.00
2013-4-23,86.3,64.5,43.3,50.8,36.7,19.7,91,50,9,29.91,29.79,14,2,0,0.00
2013-4-24,69.9,57.0,50.8,54.3,50.2,42.7,92,79,55,29.95,29.82,10,1,0,0.00
2013-4-25,74.2,59.3,48.2,50.0,47.1,40.7,89,67,39,30.08,29.92,5,1,0,0.00
2013-4-26,84.0,58.0,42.6,50.3,43.0,-99.9,89,64,28,30.13,30.06,4,1,0,0.00
2013-4-29,66.2,62.6,59.3,52.0,50.4,48.7,70,65,59,29.75,29.73,4,0,0,0.00
2013-4-30,76.5,60.4,48.4,54.2,49.6,-99.9,94,72,42,29.84,29.71,8,1,0,0.00
2013-5-1,86.7,72.2,46.7,51.5,14.1,-19.5,92,30,2,30.03,29.84,23,4,0,0.00
2013-5-2,83.0,75.3,69.0,2.6,-7.0,-20.1,6,4,2,30.14,30.00,23,7,0,0.00
2013-5-3,94.1,75.3,57.8,20.5,6.6,-99.9,22,8,3,30.00,29.73,14,2,0,0.00
2013-5-4,82.9,65.6,49.5,50.5,34.4,-99.9,81,36,14,29.75,29.64,9,1,0,0.00
2013-5-5,59.3,55.1,51.8,49.8,47.9,46.6,87,77,65,29.91,29.74,6,2,0,0.00
2013-5-6,64.4,54.2,50.6,52.7,49.6,47.6,94,85,59,29.96,29.85,5,1,0,0.30
2013-5-9,63.4,58.6,54.3,50.2,44.4,-99.9,80,69,62,30.04,30.02,1,0,0,0.00
2013-5-10,90.5,71.2,50.5,55.5,48.1,38.8,88,51,17,30.05,29.93,10,1,0,0.00
2013-5-11,96.4,77.0,56.1,50.1,43.6,33.9,69,37,12,30.02,29.91,8,1,0,0.00
2013-5-12,99.2,82.6,61.3,51.7,42.2,-99.9,53,28,12,30.00,29.87,8,1,0,0.00
2013-6-1,92.9,88.5,80.3,54.6,51.9,48.5,33,29,26,29.66,29.66,0,0,0,0.00
2013-6-9,90.8,77.8,58.0,55.4,50.5,40.7,79,44,18,29.83,29.76,7,2,0,0.00
2013-6-10,82.3,66.2,52.0,54.5,51.7,48.2,92,64,32,29.88,29.81,8,1,0,0.00
2013-6-11,95.7,73.7,52.2,56.3,50.3,40.0,86,49,15,29.91,29.80,6,1,0,0.00
2013-6-12,88.7,72.5,55.1,59.3,52.0,44.8,72,51,25,29.90,29.84,7,1,0,0.00
2013-6-13,71.8,64.7,59.0,55.7,52.4,48.5,71,65,57,29.85,29.83,1,0,0,0.00
2013-6-14,89.3,71.0,48.5,55.9,47.3,39.5,75,48,19,29.85,29.74,6,1,0,0.00
2013-6-15,85.0,65.6,47.8,56.0,49.0,41.7,94,60,25,29.92,29.81,7,1,0,0.00
2013-6-16,90.7,70.3,48.8,54.4,47.0,-99.9,78,48,27,29.97,29.86,6,1,0,0.00
2013-6-17,95.8,75.4,53.3,53.2,43.9,36.1,58,36,16,29.91,29.78,6,1,0,0.00
2013-6-18,89.2,72.7,53.1,53.6,45.0,35.1,63,39,21,29.83,29.73,7,1,0,0.00
2013-6-19,90.8,71.3,51.5,48.5,32.6,13.2,78,34,6,29.81,29.71,10,1,0,0.00
2013-6-20,75.8,56.4,49.0,46.9,24.7,17.2,36,29,25,29.79,29.76,1,0,0,0.00
2013-7-10,73.4,72.6,72.1,61.0,59.7,59.0,66,64,62,29.84,29.83,1,0,3,0.00
2013-7-11,79.7,71.3,64.1,63.0,59.9,56.0,84,68,51,29.90,29.81,3,0,7,0.04
2013-7-12,95.0,75.7,60.1,64.0,59.0,54.0,92,61,29,29.87,29.77,6,1,11,0.00
2013-7-13,99.2,79.4,58.7,59.0,52.3,45.0,75,44,16,29.87,29.75,5,1,10,0.00
2013-7-14,102.4,82.2,61.1,57.0,49.8,43.0,57,35,17,29.84,29.71,6,1,9,0.00
2013-7-15,97.2,78.8,62.5,52.0,45.4,38.0,56,34,14,29.78,29.69,4,1,12,0.00
2013-7-16,93.8,74.1,51.7,45.0,39.2,27.0,66,34,10,29.91,29.77,6,1,11,0.00
2013-7-17,97.0,75.9,52.6,44.0,36.5,32.0,50,27,12,29.96,29.87,5,1,11,0.00
2013-7-18,99.9,78.5,56.1,54.0,40.9,30.0,42,28,14,29.92,29.77,5,1,10,0.00
2013-7-19,98.7,79.5,59.5,56.0,47.4,38.0,52,35,19,29.82,29.71,3,1,8,0.00
2013-7-20,97.6,76.1,59.7,66.0,56.9,47.0,69,53,33,29.78,29.67,5,1,10,0.00
2013-7-21,83.4,74.4,65.9,64.0,60.5,58.0,79,63,47,29.87,29.72,5,0,7,0.00
2013-7-22,91.4,77.8,65.1,67.0,62.8,58.0,93,63,41,29.89,29.82,5,1,12,0.08
2013-7-23,94.1,76.3,62.9,63.0,58.7,53.0,82,57,35,29.92,29.83,5,1,11,0.00
2013-7-24,96.7,78.6,60.9,63.0,56.3,52.0,75,49,27,29.90,29.78,7,1,10,0.00
2013-7-25,97.6,79.3,60.7,61.0,56.7,51.0,74,49,29,29.91,29.81,5,1,9,0.00
2013-7-26,93.4,78.4,66.2,66.0,61.8,57.0,92,60,35,29.98,29.89,4,0,6,0.07
2013-7-27,95.5,79.0,63.7,63.0,58.8,54.0,76,53,31,29.92,29.75,4,1,10,0.00
2013-7-28,93.5,75.3,60.2,60.0,53.8,47.0,77,51,22,29.82,29.74,7,1,11,0.00
2013-7-29,91.0,71.8,52.8,57.0,50.8,47.0,81,52,24,29.95,29.82,5,1,11,0.00
2013-7-30,93.2,73.2,54.8,56.0,49.9,46.0,78,48,21,30.02,29.93,6,1,12,0.00
2013-7-31,88.0,67.3,-90.0,57.0,47.6,-99.9,76,53,33,30.01,29.89,4,-10,11,0.00
2013-8-1,90.6,71.6,49.8,57.0,51.7,44.0,81,54,29,29.95,29.80,6,1,8,0.00
2013-8-2,88.5,71.3,51.2,56.0,51.4,47.0,86,54,27,29.89,29.81,4,1,11,0.00
2013-8-3,91.7,71.9,52.1,56.0,50.5,46.0,83,52,21,29.91,29.83,5,1,10,0.00
2013-8-4,92.8,71.6,52.2,52.0,47.4,37.0,80,48,15,29.93,29.85,5,1,9,0.00
2013-8-5,95.0,72.2,51.7,45.0,39.7,18.0,65,38,6,29.93,29.83,3,0,8,0.00
2013-8-6,91.0,71.5,51.2,50.0,41.0,32.0,62,38,13,29.95,29.87,5,1,11,0.00
2013-8-7,89.7,70.4,50.8,52.0,46.3,40.0,75,47,20,29.98,29.89,6,1,9,0.00
2013-8-8,89.3,69.8,52.5,52.0,46.3,39.0,74,48,20,29.93,29.82,4,1,11,0.00
2013-8-9,87.7,69.1,50.1,52.0,44.9,33.0,77,48,17,29.91,29.82,5,1,9,0.00
2013-8-10,87.3,69.7,50.9,56.0,48.4,42.0,73,50,28,29.95,29.87,4,1,9,0.00
2013-8-11,90.9,71.9,51.9,55.0,50.2,45.0,77,50,28,29.92,29.82,5,1,10,0.00
2013-8-12,95.3,73.7,53.2,57.0,50.9,45.0,73,48,24,29.89,29.80,5,1,8,0.00
2013-8-13,97.8,76.7,54.9,56.0,51.1,46.0,73,45,22,29.89,29.79,7,1,8,0.00
2013-8-14,103.8,79.8,57.5,52.0,43.4,33.0,56,32,10,29.84,29.74,4,1,10,0.00
2013-8-15,100.8,80.3,60.8,54.0,44.6,37.0,49,31,14,29.85,29.78,5,1,10,0.00
2013-8-16,99.6,81.1,62.5,57.0,48.8,44.0,56,34,19,29.87,29.80,5,1,9,0.00
2013-8-17,101.0,80.7,61.6,52.0,45.4,39.0,54,31,15,29.87,29.71,4,1,9,0.00
2013-8-18,103.0,81.6,61.1,57.0,47.5,40.0,53,32,20,29.81,29.69,6,1,14,0.00
2013-8-19,99.3,85.2,68.7,62.0,57.1,50.0,58,40,25,29.80,29.70,11,2,17,0.00
2013-8-20,98.8,78.7,60.0,56.0,49.0,35.0,64,40,12,29.82,29.75,6,1,10,0.00
2013-8-21,100.0,79.9,60.1,51.0,44.7,35.0,65,34,11,29.85,29.75,6,1,9,0.00
2013-8-22,100.3,82.2,60.5,49.0,42.9,36.0,57,29,12,29.84,29.72,6,1,11,0.00
2013-8-23,97.9,77.6,57.2,47.0,39.1,34.0,47,28,11,29.79,29.67,5,1,9,0.00
2013-8-24,97.6,75.7,54.1,46.0,39.3,30.0,55,31,10,29.81,29.68,6,1,12,0.00
2013-8-25,95.7,75.1,53.7,56.0,38.6,29.0,50,29,12,29.88,29.77,5,1,10,0.00
2013-8-26,95.3,77.9,60.0,65.0,49.7,33.0,66,38,26,29.89,29.74,6,1,12,0.00
2013-8-27,94.8,80.6,68.8,65.0,60.7,56.0,68,52,35,29.81,29.68,4,1,9,0.00
2013-8-28,98.1,81.2,63.8,63.0,57.6,52.0,76,48,25,29.84,29.72,6,1,12,0.00
2013-8-29,103.6,84.2,64.5,58.0,53.6,47.0,67,38,20,29.88,29.78,5,1,8,0.00
2013-8-30,98.0,82.4,68.1,68.0,58.9,46.0,64,46,29,29.90,29.81,7,1,12,0.00
2013-8-31,94.3,82.0,72.2,68.0,66.1,63.0,75,60,42,29.89,29.78,6,1,11,0.00
2013-9-1,94.1,80.1,68.7,68.0,65.4,62.0,85,63,38,29.85,29.75,8,1,11,0.00
2013-9-2,97.4,81.4,66.0,66.0,61.5,57.0,82,54,27,29.84,29.72,6,1,9,0.00
2013-9-3,98.1,82.4,66.8,61.0,56.9,53.0,65,44,26,29.82,29.73,8,1,10,0.00
2013-9-4,101.9,82.8,65.1,60.0,54.7,49.0,67,41,21,29.85,29.74,5,1,13,0.00
2013-9-5,101.3,83.4,65.2,58.0,51.4,46.0,58,35,21,29.82,29.73,5,1,8,0.00
2013-9-6,102.7,82.9,64.4,54.0,48.4,43.0,54,33,18,29.81,29.70,5,1,9,0.00
2013-9-7,101.3,81.1,63.5,55.0,44.6,37.0,47,29,16,29.81,29.69,5,1,10,0.00
2013-9-8,99.1,79.2,61.4,53.0,43.5,36.0,46,30,18,29.78,29.66,5,1,9,0.00
2013-9-9,95.4,78.3,63.3,56.0,48.6,42.0,50,37,23,29.74,29.62,5,1,10,0.00
2013-9-10,89.7,72.0,56.5,53.0,47.4,42.0,67,45,19,29.86,29.71,7,1,9,0.00
2013-9-11,88.3,70.1,53.9,56.0,51.1,47.0,79,55,27,29.92,29.84,4,1,8,0.00
2013-9-12,95.1,73.3,53.7,55.0,47.4,40.0,82,47,15,29.88,29.76,5,1,8,0.00
2013-9-13,98.8,77.8,59.0,55.0,47.1,40.0,54,36,17,29.80,29.60,6,1,8,0.00
2013-9-14,102.0,81.0,63.3,54.0,48.8,44.0,54,35,16,29.66,29.55,5,1,10,0.00
2013-9-15,100.8,79.7,60.7,52.0,45.6,39.0,58,34,13,29.71,29.62,5,1,11,0.00
2013-9-16,99.8,77.6,59.0,49.0,41.7,36.0,45,30,14,29.77,29.66,5,1,10,0.00
2013-9-17,89.9,70.7,52.1,48.0,42.6,36.0,66,40,15,29.74,29.63,6,1,9,0.00
2013-9-18,88.2,69.0,52.1,56.0,48.1,40.0,75,50,23,29.74,29.66,5,1,8,0.00
2013-9-19,96.6,73.3,53.7,58.0,45.3,29.0,80,48,10,29.76,29.66,7,1,15,0.00
2013-9-20,82.2,65.8,51.4,60.0,55.5,48.0,90,72,46,29.83,29.73,5,1,9,0.00
2013-9-21,78.3,64.6,54.9,58.0,55.2,51.0,89,73,42,29.85,29.72,8,1,14,0.00
2013-9-22,81.9,64.1,48.3,51.0,41.4,33.0,91,49,18,29.84,29.73,4,1,13,0.00
2013-9-23,92.2,73.1,57.6,42.0,38.3,32.0,51,31,15,29.87,29.77,9,1,16,0.00
2013-9-24,91.0,70.4,52.0,43.0,36.1,31.0,49,31,14,29.89,29.78,5,1,11,0.00
2013-9-25,78.5,65.1,50.9,57.0,50.0,39.0,84,60,40,29.78,29.61,6,1,10,0.00
2013-9-26,71.6,60.0,47.7,48.0,34.6,24.0,74,42,17,29.89,29.66,13,2,14,0.00
2013-9-27,77.6,65.1,47.6,31.0,25.9,19.0,42,24,13,30.01,29.88,11,3,21,0.00
2013-9-28,86.3,68.0,49.9,31.0,25.3,20.0,35,22,10,30.03,29.92,6,1,15,0.00
2013-9-29,89.5,67.2,47.4,36.0,27.0,20.0,43,25,8,30.05,29.92,4,1,8,0.00
2013-9-30,91.7,69.4,49.0,42.0,33.9,28.0,50,30,12,29.97,29.79,8,1,10,0.00
2013-10-1,85.9,67.0,49.8,52.0,43.9,34.0,73,46,25,29.88,29.80,6,1,11,0.00
2013-10-2,80.0,63.4,50.9,56.0,52.4,47.0,93,71,38,29.91,29.80,4,1,9,0.00
2013-10-3,78.9,61.6,47.5,55.0,47.9,36.0,94,65,29,29.89,29.75,4,1,10,0.00
2013-10-4,75.5,68.3,60.0,36.0,16.8,10.0,41,14,9,30.06,29.86,20,8,33,0.00
2013-10-5,79.1,71.4,64.5,23.0,19.0,13.0,20,14,9,30.20,30.05,19,6,28,0.00
2013-10-6,87.5,73.9,57.6,24.0,16.5,11.0,20,12,6,30.09,29.93,15,3,20,0.00
2013-10-7,86.8,66.2,50.7,32.0,22.4,12.0,41,21,8,29.95,29.84,5,1,8,0.00
2013-10-8,76.7,59.3,43.1,52.0,39.1,25.0,87,51,24,29.88,29.74,6,1,10,0.00
2013-10-9,55.5,53.5,50.9,51.0,48.6,47.0,91,84,79,29.78,29.67,5,1,12,0.05